#datetime,building,power
2021-12-09T00:00:00,75s,1.90
2021-12-09T00:01:00,75s,11.29
2021-12-09T00:02:00,75s,11.46
2021-12-09T00:03:00,75s,11.49
2021-12-09T00:04:00,75s,11.10
2021-12-09T00:05:00,75s,11.14
2021-12-09T00:06:00,75s,2.12
2021-12-09T00:07:00,75s,2.19
2021-12-09T00:08:00,75s,2.41
2021-12-09T00:09:00,75s,2.09
2021-12-09T00:10:00,75s,2.01
2021-12-09T00:11:00,75s,1.98
2021-12-09T00:12:00,75s,1.96
2021-12-09T00:13:00,75s,1.91
2021-12-09T00:14:00,75s,2.15
2021-12-09T00:15:00,75s,1.90
2021-12-09T00:16:00,75s,1.99
2021-12-09T00:17:00,75s,2.41
2021-12-09T00:18:00,75s,2.59
2021-12-09T00:19:00,75s,2.40
2021-12-09T00:20:00,75s,1.99
2021-12-09T00:21:00,75s,1.93
2021-12-09T00:22:00,75s,1.90
2021-12-09T00:23:00,75s,1.90
2021-12-09T00:24:00,75s,1.90
2021-12-09T00:25:00,75s,2.09
2021-12-09T00:26:00,75s,2.33
2021-12-09T00:27:00,75s,2.07
2021-12-09T00:28:00,75s,2.06
2021-12-09T00:29:00,75s,2.08
2021-12-09T00:30:00,75s,1.98
2021-12-09T00:31:00,75s,1.98
2021-12-09T00:32:00,75s,1.88
2021-12-09T00:33:00,75s,1.83
2021-12-09T00:34:00,75s,1.80
2021-12-09T00:35:00,75s,2.17
2021-12-09T00:36:00,75s,1.74
2021-12-09T00:37:00,75s,1.73
2021-12-09T00:38:00,75s,1.72
2021-12-09T00:39:00,75s,1.81
2021-12-09T00:40:00,75s,1.81
2021-12-09T00:41:00,75s,1.93
2021-12-09T00:42:00,75s,1.94
2021-12-09T00:43:00,75s,1.95
2021-12-09T00:44:00,75s,1.97
2021-12-09T00:45:00,75s,1.86
2021-12-09T00:46:00,75s,1.86
2021-12-09T00:47:00,75s,1.86
2021-12-09T00:48:00,75s,1.85
2021-12-09T00:49:00,75s,1.83
2021-12-09T00:50:00,75s,1.92
2021-12-09T00:51:00,75s,1.95
2021-12-09T00:52:00,75s,1.95
2021-12-09T00:53:00,75s,1.93
2021-12-09T00:54:00,75s,1.93
2021-12-09T00:55:00,75s,1.89
2021-12-09T00:56:00,75s,2.26
2021-12-09T00:57:00,75s,1.90
2021-12-09T00:58:00,75s,1.89
2021-12-09T00:59:00,75s,1.81
2021-12-09T01:00:00,75s,1.74
2021-12-09T01:01:00,75s,1.87
2021-12-09T01:02:00,75s,1.86
2021-12-09T01:03:00,75s,1.85
2021-12-09T01:04:00,75s,1.91
2021-12-09T01:05:00,75s,2.23
2021-12-09T01:06:00,75s,1.92
2021-12-09T01:07:00,75s,1.90
2021-12-09T01:08:00,75s,1.89
2021-12-09T01:09:00,75s,1.97
2021-12-09T01:10:00,75s,1.99
2021-12-09T01:11:00,75s,1.99
2021-12-09T01:12:00,75s,1.91
2021-12-09T01:13:00,75s,1.98
2021-12-09T01:14:00,75s,2.06
2021-12-09T01:15:00,75s,1.98
2021-12-09T01:16:00,75s,1.93
2021-12-09T01:17:00,75s,1.93
2021-12-09T01:18:00,75s,1.93
2021-12-09T01:19:00,75s,2.17
2021-12-09T01:20:00,75s,1.83
2021-12-09T01:21:00,75s,1.81
2021-12-09T01:22:00,75s,1.91
2021-12-09T01:23:00,75s,1.81
2021-12-09T01:24:00,75s,1.75
2021-12-09T01:25:00,75s,1.75
2021-12-09T01:26:00,75s,2.04
2021-12-09T01:27:00,75s,1.82
2021-12-09T01:28:00,75s,1.81
2021-12-09T01:29:00,75s,1.73
2021-12-09T01:30:00,75s,1.73
2021-12-09T01:31:00,75s,1.75
2021-12-09T01:32:00,75s,1.79
2021-12-09T01:33:00,75s,1.85
2021-12-09T01:34:00,75s,1.85
2021-12-09T01:35:00,75s,1.82
2021-12-09T01:36:00,75s,1.72
2021-12-09T01:37:00,75s,1.81
2021-12-09T01:38:00,75s,1.90
2021-12-09T01:39:00,75s,1.90
2021-12-09T01:40:00,75s,1.90
2021-12-09T01:41:00,75s,1.82
2021-12-09T01:42:00,75s,1.81
2021-12-09T01:43:00,75s,1.81
2021-12-09T01:44:00,75s,1.89
2021-12-09T01:45:00,75s,1.89
2021-12-09T01:46:00,75s,1.81
2021-12-09T01:47:00,75s,1.77
2021-12-09T01:48:00,75s,1.77
2021-12-09T01:49:00,75s,2.05
2021-12-09T01:50:00,75s,1.87
2021-12-09T01:51:00,75s,1.85
2021-12-09T01:52:00,75s,1.77
2021-12-09T01:53:00,75s,1.78
2021-12-09T01:54:00,75s,1.89
2021-12-09T01:55:00,75s,2.00
2021-12-09T01:56:00,75s,1.99
2021-12-09T01:57:00,75s,2.11
2021-12-09T01:58:00,75s,2.26
2021-12-09T01:59:00,75s,2.32
2021-12-09T02:00:00,75s,2.82
2021-12-09T02:01:00,75s,2.38
2021-12-09T02:02:00,75s,2.36
2021-12-09T02:03:00,75s,2.37
2021-12-09T02:04:00,75s,2.28
2021-12-09T02:05:00,75s,2.21
2021-12-09T02:06:00,75s,2.27
2021-12-09T02:07:00,75s,2.13
2021-12-09T02:08:00,75s,2.25
2021-12-09T02:09:00,75s,2.08
2021-12-09T02:10:00,75s,2.36
2021-12-09T02:11:00,75s,2.02
2021-12-09T02:12:00,75s,2.11
2021-12-09T02:13:00,75s,2.34
2021-12-09T02:14:00,75s,2.10
2021-12-09T02:15:00,75s,2.02
2021-12-09T02:16:00,75s,2.45
2021-12-09T02:17:00,75s,2.14
2021-12-09T02:18:00,75s,2.15
2021-12-09T02:19:00,75s,2.15
2021-12-09T02:20:00,75s,2.05
2021-12-09T02:21:00,75s,2.74
2021-12-09T02:22:00,75s,1.90
2021-12-09T02:23:00,75s,2.02
2021-12-09T02:24:00,75s,2.12
2021-12-09T02:25:00,75s,2.01
2021-12-09T02:26:00,75s,1.92
2021-12-09T02:27:00,75s,1.96
2021-12-09T02:28:00,75s,2.04
2021-12-09T02:29:00,75s,2.17
2021-12-09T02:30:00,75s,2.02
2021-12-09T02:31:00,75s,1.89
2021-12-09T02:32:00,75s,1.83
2021-12-09T02:33:00,75s,1.49
2021-12-09T02:34:00,75s,1.51
2021-12-09T02:35:00,75s,1.52
2021-12-09T02:36:00,75s,1.50
2021-12-09T02:37:00,75s,1.58
2021-12-09T02:38:00,75s,2.33
2021-12-09T02:39:00,75s,1.42
2021-12-09T02:40:00,75s,1.40
2021-12-09T02:41:00,75s,1.41
2021-12-09T02:42:00,75s,1.52
2021-12-09T02:43:00,75s,1.51
2021-12-09T02:44:00,75s,1.52
2021-12-09T02:45:00,75s,1.41
2021-12-09T02:46:00,75s,1.47
2021-12-09T02:47:00,75s,1.58
2021-12-09T02:48:00,75s,1.48
2021-12-09T02:49:00,75s,1.51
2021-12-09T02:50:00,75s,1.55
2021-12-09T02:51:00,75s,1.88
2021-12-09T02:52:00,75s,1.79
2021-12-09T02:53:00,75s,1.56
2021-12-09T02:54:00,75s,1.53
2021-12-09T02:55:00,75s,1.46
2021-12-09T02:56:00,75s,1.45
2021-12-09T02:57:00,75s,1.49
2021-12-09T02:58:00,75s,1.56
2021-12-09T02:59:00,75s,1.59
2021-12-09T03:00:00,75s,1.70
2021-12-09T03:01:00,75s,2.04
2021-12-09T03:02:00,75s,1.63
2021-12-09T03:03:00,75s,1.53
2021-12-09T03:04:00,75s,1.53
2021-12-09T03:05:00,75s,1.58
2021-12-09T03:06:00,75s,1.50
2021-12-09T03:07:00,75s,1.94
2021-12-09T03:08:00,75s,1.76
2021-12-09T03:09:00,75s,1.70
2021-12-09T03:10:00,75s,1.61
2021-12-09T03:11:00,75s,1.90
2021-12-09T03:12:00,75s,1.78
2021-12-09T03:13:00,75s,1.78
2021-12-09T03:14:00,75s,1.76
2021-12-09T03:15:00,75s,1.69
2021-12-09T03:16:00,75s,1.69
2021-12-09T03:17:00,75s,1.75
2021-12-09T03:18:00,75s,1.76
2021-12-09T03:19:00,75s,1.68
2021-12-09T03:20:00,75s,2.21
2021-12-09T03:21:00,75s,2.72
2021-12-09T03:22:00,75s,2.91
2021-12-09T03:23:00,75s,3.97
2021-12-09T03:24:00,75s,2.93
2021-12-09T03:25:00,75s,3.09
2021-12-09T03:26:00,75s,2.88
2021-12-09T03:27:00,75s,2.75
2021-12-09T03:28:00,75s,2.75
2021-12-09T03:29:00,75s,12.10
2021-12-09T03:30:00,75s,12.10
2021-12-09T03:31:00,75s,11.99
2021-12-09T03:32:00,75s,12.02
2021-12-09T03:33:00,75s,11.95
2021-12-09T03:34:00,75s,3.09
2021-12-09T03:35:00,75s,3.08
2021-12-09T03:36:00,75s,3.09
2021-12-09T03:37:00,75s,3.09
2021-12-09T03:38:00,75s,3.08
2021-12-09T03:39:00,75s,2.97
2021-12-09T03:40:00,75s,2.96
2021-12-09T03:41:00,75s,2.97
2021-12-09T03:42:00,75s,2.95
2021-12-09T03:43:00,75s,2.94
2021-12-09T03:44:00,75s,2.95
2021-12-09T03:45:00,75s,2.99
2021-12-09T03:46:00,75s,2.90
2021-12-09T03:47:00,75s,2.97
2021-12-09T03:48:00,75s,2.97
2021-12-09T03:49:00,75s,2.96
2021-12-09T03:50:00,75s,2.86
2021-12-09T03:51:00,75s,2.80
2021-12-09T03:52:00,75s,2.96
2021-12-09T03:53:00,75s,3.52
2021-12-09T03:54:00,75s,3.04
2021-12-09T03:55:00,75s,3.85
2021-12-09T03:56:00,75s,3.17
2021-12-09T03:57:00,75s,3.29
2021-12-09T03:58:00,75s,3.68
2021-12-09T03:59:00,75s,3.77
2021-12-09T04:00:00,75s,3.59
2021-12-09T04:01:00,75s,3.40
2021-12-09T04:02:00,75s,3.39
2021-12-09T04:03:00,75s,3.36
2021-12-09T04:04:00,75s,3.44
2021-12-09T04:05:00,75s,3.53
2021-12-09T04:06:00,75s,3.40
2021-12-09T04:07:00,75s,3.38
2021-12-09T04:08:00,75s,3.52
2021-12-09T04:09:00,75s,3.37
2021-12-09T04:10:00,75s,3.40
2021-12-09T04:11:00,75s,3.41
2021-12-09T04:12:00,75s,3.26
2021-12-09T04:13:00,75s,3.32
2021-12-09T04:14:00,75s,3.27
2021-12-09T04:15:00,75s,3.32
2021-12-09T04:16:00,75s,3.40
2021-12-09T04:17:00,75s,3.47
2021-12-09T04:18:00,75s,3.37
2021-12-09T04:19:00,75s,3.48
2021-12-09T04:20:00,75s,3.36
2021-12-09T04:21:00,75s,3.69
2021-12-09T04:22:00,75s,3.64
2021-12-09T04:23:00,75s,3.64
2021-12-09T04:24:00,75s,3.48
2021-12-09T04:25:00,75s,3.47
2021-12-09T04:26:00,75s,3.47
2021-12-09T04:27:00,75s,3.55
2021-12-09T04:28:00,75s,3.54
2021-12-09T04:29:00,75s,3.48
2021-12-09T04:30:00,75s,3.74
2021-12-09T04:31:00,75s,3.56
2021-12-09T04:32:00,75s,3.53
2021-12-09T04:33:00,75s,3.86
2021-12-09T04:34:00,75s,3.45
2021-12-09T04:35:00,75s,3.49
2021-12-09T04:36:00,75s,3.40
2021-12-09T04:37:00,75s,3.36
2021-12-09T04:38:00,75s,3.44
2021-12-09T04:39:00,75s,3.39
2021-12-09T04:40:00,75s,3.44
2021-12-09T04:41:00,75s,3.62
2021-12-09T04:42:00,75s,3.33
2021-12-09T04:43:00,75s,3.61
2021-12-09T04:44:00,75s,3.48
2021-12-09T04:45:00,75s,3.46
2021-12-09T04:46:00,75s,3.59
2021-12-09T04:47:00,75s,3.61
2021-12-09T04:48:00,75s,3.65
2021-12-09T04:49:00,75s,3.90
2021-12-09T04:50:00,75s,3.75
2021-12-09T04:51:00,75s,3.75
2021-12-09T04:52:00,75s,3.72
2021-12-09T04:53:00,75s,3.73
2021-12-09T04:54:00,75s,3.92
2021-12-09T04:55:00,75s,3.85
2021-12-09T04:56:00,75s,4.61
2021-12-09T04:57:00,75s,3.83
2021-12-09T04:58:00,75s,3.96
2021-12-09T04:59:00,75s,4.12
2021-12-09T05:00:00,75s,3.89
2021-12-09T05:01:00,75s,4.04
2021-12-09T05:02:00,75s,3.86
2021-12-09T05:03:00,75s,4.06
2021-12-09T05:04:00,75s,3.87
2021-12-09T05:05:00,75s,4.33
2021-12-09T05:06:00,75s,4.02
2021-12-09T05:07:00,75s,4.16
2021-12-09T05:08:00,75s,4.28
2021-12-09T05:09:00,75s,3.92
2021-12-09T05:10:00,75s,4.03
2021-12-09T05:11:00,75s,4.10
2021-12-09T05:12:00,75s,3.92
2021-12-09T05:13:00,75s,4.00
2021-12-09T05:14:00,75s,3.98
2021-12-09T05:15:00,75s,4.12
2021-12-09T05:16:00,75s,4.60
2021-12-09T05:17:00,75s,3.88
2021-12-09T05:18:00,75s,4.24
2021-12-09T05:19:00,75s,4.21
2021-12-09T05:20:00,75s,4.24
2021-12-09T05:21:00,75s,4.62
2021-12-09T05:22:00,75s,4.18
2021-12-09T05:23:00,75s,4.31
2021-12-09T05:24:00,75s,4.65
2021-12-09T05:25:00,75s,4.26
2021-12-09T05:26:00,75s,4.36
2021-12-09T05:27:00,75s,4.40
2021-12-09T05:28:00,75s,4.38
2021-12-09T05:29:00,75s,4.34
2021-12-09T05:30:00,75s,4.17
2021-12-09T05:31:00,75s,4.30
2021-12-09T05:32:00,75s,4.60
2021-12-09T05:33:00,75s,4.39
2021-12-09T05:34:00,75s,4.38
2021-12-09T05:35:00,75s,4.51
2021-12-09T05:36:00,75s,4.42
2021-12-09T05:37:00,75s,4.44
2021-12-09T05:38:00,75s,4.54
2021-12-09T05:39:00,75s,4.45
2021-12-09T05:40:00,75s,4.38
2021-12-09T05:41:00,75s,4.24
2021-12-09T05:42:00,75s,4.24
2021-12-09T05:43:00,75s,4.22
2021-12-09T05:44:00,75s,4.18
2021-12-09T05:45:00,75s,4.15
2021-12-09T05:46:00,75s,4.15
2021-12-09T05:47:00,75s,4.01
2021-12-09T05:48:00,75s,3.99
2021-12-09T05:49:00,75s,4.31
2021-12-09T05:50:00,75s,4.08
2021-12-09T05:51:00,75s,4.29
2021-12-09T05:52:00,75s,3.94
2021-12-09T05:53:00,75s,3.85
2021-12-09T05:54:00,75s,3.93
2021-12-09T05:55:00,75s,3.90
2021-12-09T05:56:00,75s,3.90
2021-12-09T05:57:00,75s,4.11
2021-12-09T05:58:00,75s,15.14
2021-12-09T05:59:00,75s,4.03
2021-12-09T06:00:00,75s,4.06
2021-12-09T06:01:00,75s,4.32
2021-12-09T06:02:00,75s,4.62
2021-12-09T06:03:00,75s,4.48
2021-12-09T06:04:00,75s,2.45
2021-12-09T06:05:00,75s,2.44
2021-12-09T06:06:00,75s,3.87
2021-12-09T06:07:00,75s,4.67
2021-12-09T06:08:00,75s,5.78
2021-12-09T06:09:00,75s,6.09
2021-12-09T06:10:00,75s,5.93
2021-12-09T06:11:00,75s,5.93
2021-12-09T06:12:00,75s,5.92
2021-12-09T06:13:00,75s,5.95
2021-12-09T06:14:00,75s,5.82
2021-12-09T06:15:00,75s,5.65
2021-12-09T06:16:00,75s,5.54
2021-12-09T06:17:00,75s,6.04
2021-12-09T06:18:00,75s,5.59
2021-12-09T06:19:00,75s,5.48
2021-12-09T06:20:00,75s,5.48
2021-12-09T06:21:00,75s,5.56
2021-12-09T06:22:00,75s,5.88
2021-12-09T06:23:00,75s,5.71
2021-12-09T06:24:00,75s,5.01
2021-12-09T06:25:00,75s,4.83
2021-12-09T06:26:00,75s,5.43
2021-12-09T06:27:00,75s,4.64
2021-12-09T06:28:00,75s,4.30
2021-12-09T06:29:00,75s,5.35
2021-12-09T06:30:00,75s,4.33
2021-12-09T06:31:00,75s,4.29
2021-12-09T06:32:00,75s,4.44
2021-12-09T06:33:00,75s,4.25
2021-12-09T06:34:00,75s,4.22
2021-12-09T06:35:00,75s,2.25
2021-12-09T06:36:00,75s,2.20
2021-12-09T06:37:00,75s,2.90
2021-12-09T06:38:00,75s,4.38
2021-12-09T06:39:00,75s,5.51
2021-12-09T06:40:00,75s,6.38
2021-12-09T06:41:00,75s,5.88
2021-12-09T06:42:00,75s,5.82
2021-12-09T06:43:00,75s,6.10
2021-12-09T06:44:00,75s,6.19
2021-12-09T06:45:00,75s,6.52
2021-12-09T06:46:00,75s,5.94
2021-12-09T06:47:00,75s,5.88
2021-12-09T06:48:00,75s,5.94
2021-12-09T06:49:00,75s,5.74
2021-12-09T06:50:00,75s,5.74
2021-12-09T06:51:00,75s,5.73
2021-12-09T06:52:00,75s,4.85
2021-12-09T06:53:00,75s,4.74
2021-12-09T06:54:00,75s,5.22
2021-12-09T06:55:00,75s,14.24
2021-12-09T06:56:00,75s,13.64
2021-12-09T06:57:00,75s,13.89
2021-12-09T06:58:00,75s,13.44
2021-12-09T06:59:00,75s,13.23
2021-12-09T07:00:00,75s,13.91
2021-12-09T07:01:00,75s,4.57
2021-12-09T07:02:00,75s,4.91
2021-12-09T07:03:00,75s,4.49
2021-12-09T07:04:00,75s,4.59
2021-12-09T07:05:00,75s,5.13
2021-12-09T07:06:00,75s,4.83
2021-12-09T07:07:00,75s,4.90
2021-12-09T07:08:00,75s,4.75
2021-12-09T07:09:00,75s,4.71
2021-12-09T07:10:00,75s,4.69
2021-12-09T07:11:00,75s,5.13
2021-12-09T07:12:00,75s,4.76
2021-12-09T07:13:00,75s,4.89
2021-12-09T07:14:00,75s,4.61
2021-12-09T07:15:00,75s,4.59
2021-12-09T07:16:00,75s,4.63
2021-12-09T07:17:00,75s,4.65
2021-12-09T07:18:00,75s,2.79
2021-12-09T07:19:00,75s,3.60
2021-12-09T07:20:00,75s,3.37
2021-12-09T07:21:00,75s,4.51
2021-12-09T07:22:00,75s,5.58
2021-12-09T07:23:00,75s,6.43
2021-12-09T07:24:00,75s,5.88
2021-12-09T07:25:00,75s,5.82
2021-12-09T07:26:00,75s,5.77
2021-12-09T07:27:00,75s,6.16
2021-12-09T07:28:00,75s,5.65
2021-12-09T07:29:00,75s,5.82
2021-12-09T07:30:00,75s,5.71
2021-12-09T07:31:00,75s,6.04
2021-12-09T07:32:00,75s,5.55
2021-12-09T07:33:00,75s,4.80
2021-12-09T07:34:00,75s,5.10
2021-12-09T07:35:00,75s,5.00
2021-12-09T07:36:00,75s,4.59
2021-12-09T07:37:00,75s,4.53
2021-12-09T07:38:00,75s,5.28
2021-12-09T07:39:00,75s,4.46
2021-12-09T07:40:00,75s,4.36
2021-12-09T07:41:00,75s,4.21
2021-12-09T07:42:00,75s,4.53
2021-12-09T07:43:00,75s,2.44
2021-12-09T07:44:00,75s,2.65
2021-12-09T07:45:00,75s,3.89
2021-12-09T07:46:00,75s,4.99
2021-12-09T07:47:00,75s,6.94
2021-12-09T07:48:00,75s,6.30
2021-12-09T07:49:00,75s,6.14
2021-12-09T07:50:00,75s,6.16
2021-12-09T07:51:00,75s,6.26
2021-12-09T07:52:00,75s,6.28
2021-12-09T07:53:00,75s,6.39
2021-12-09T07:54:00,75s,6.30
2021-12-09T07:55:00,75s,6.30
2021-12-09T07:56:00,75s,5.21
2021-12-09T07:57:00,75s,5.84
2021-12-09T07:58:00,75s,6.97
2021-12-09T07:59:00,75s,6.14
2021-12-09T08:00:00,75s,5.24
2021-12-09T08:01:00,75s,5.37
2021-12-09T08:02:00,75s,6.02
2021-12-09T08:03:00,75s,5.29
2021-12-09T08:04:00,75s,5.67
2021-12-09T08:05:00,75s,6.09
2021-12-09T08:06:00,75s,5.18
2021-12-09T08:07:00,75s,5.27
2021-12-09T08:08:00,75s,5.49
2021-12-09T08:09:00,75s,5.84
2021-12-09T08:10:00,75s,5.49
2021-12-09T08:11:00,75s,5.17
2021-12-09T08:12:00,75s,15.34
2021-12-09T08:13:00,75s,5.33
2021-12-09T08:14:00,75s,5.62
2021-12-09T08:15:00,75s,5.42
2021-12-09T08:16:00,75s,5.52
2021-12-09T08:17:00,75s,5.76
2021-12-09T08:18:00,75s,5.34
2021-12-09T08:19:00,75s,5.40
2021-12-09T08:20:00,75s,5.21
2021-12-09T08:21:00,75s,5.17
2021-12-09T08:22:00,75s,5.78
2021-12-09T08:23:00,75s,5.17
2021-12-09T08:24:00,75s,5.22
2021-12-09T08:25:00,75s,5.36
2021-12-09T08:26:00,75s,5.32
2021-12-09T08:27:00,75s,5.66
2021-12-09T08:28:00,75s,5.12
2021-12-09T08:29:00,75s,6.08
2021-12-09T08:30:00,75s,5.38
2021-12-09T08:31:00,75s,5.82
2021-12-09T08:32:00,75s,3.98
2021-12-09T08:33:00,75s,3.46
2021-12-09T08:34:00,75s,4.74
2021-12-09T08:35:00,75s,4.79
2021-12-09T08:36:00,75s,5.63
2021-12-09T08:37:00,75s,7.37
2021-12-09T08:38:00,75s,6.60
2021-12-09T08:39:00,75s,6.58
2021-12-09T08:40:00,75s,6.73
2021-12-09T08:41:00,75s,5.87
2021-12-09T08:42:00,75s,5.46
2021-12-09T08:43:00,75s,5.96
2021-12-09T08:44:00,75s,5.85
2021-12-09T08:45:00,75s,5.25
2021-12-09T08:46:00,75s,6.14
2021-12-09T08:47:00,75s,6.19
2021-12-09T08:48:00,75s,5.72
2021-12-09T08:49:00,75s,5.78
2021-12-09T08:50:00,75s,5.77
2021-12-09T08:51:00,75s,5.45
2021-12-09T08:52:00,75s,5.30
2021-12-09T08:53:00,75s,5.35
2021-12-09T08:54:00,75s,6.13
2021-12-09T08:55:00,75s,5.82
2021-12-09T08:56:00,75s,5.41
2021-12-09T08:57:00,75s,14.41
2021-12-09T08:58:00,75s,14.32
2021-12-09T08:59:00,75s,14.30
2021-12-09T09:00:00,75s,14.31
2021-12-09T09:01:00,75s,14.29
2021-12-09T09:02:00,75s,14.29
2021-12-09T09:03:00,75s,5.56
2021-12-09T09:04:00,75s,5.56
2021-12-09T09:05:00,75s,5.59
2021-12-09T09:06:00,75s,5.57
2021-12-09T09:07:00,75s,5.32
2021-12-09T09:08:00,75s,5.36
2021-12-09T09:09:00,75s,5.37
2021-12-09T09:10:00,75s,5.60
2021-12-09T09:11:00,75s,5.53
2021-12-09T09:12:00,75s,5.51
2021-12-09T09:13:00,75s,5.74
2021-12-09T09:14:00,75s,5.51
2021-12-09T09:15:00,75s,5.98
2021-12-09T09:16:00,75s,5.49
2021-12-09T09:17:00,75s,6.00
2021-12-09T09:18:00,75s,5.65
2021-12-09T09:19:00,75s,5.57
2021-12-09T09:20:00,75s,5.93
2021-12-09T09:21:00,75s,5.89
2021-12-09T09:22:00,75s,5.95
2021-12-09T09:23:00,75s,5.92
2021-12-09T09:24:00,75s,6.57
2021-12-09T09:25:00,75s,6.12
2021-12-09T09:26:00,75s,6.21
2021-12-09T09:27:00,75s,6.95
2021-12-09T09:28:00,75s,6.32
2021-12-09T09:29:00,75s,6.49
2021-12-09T09:30:00,75s,7.14
2021-12-09T09:31:00,75s,7.19
2021-12-09T09:32:00,75s,7.20
2021-12-09T09:33:00,75s,6.45
2021-12-09T09:34:00,75s,6.39
2021-12-09T09:35:00,75s,6.30
2021-12-09T09:36:00,75s,6.22
2021-12-09T09:37:00,75s,6.20
2021-12-09T09:38:00,75s,6.34
2021-12-09T09:39:00,75s,6.52
2021-12-09T09:40:00,75s,6.24
2021-12-09T09:41:00,75s,6.19
2021-12-09T09:42:00,75s,6.17
2021-12-09T09:43:00,75s,6.42
2021-12-09T09:44:00,75s,6.69
2021-12-09T09:45:00,75s,6.26
2021-12-09T09:46:00,75s,6.30
2021-12-09T09:47:00,75s,6.25
2021-12-09T09:48:00,75s,6.97
2021-12-09T09:49:00,75s,7.14
2021-12-09T09:50:00,75s,7.39
2021-12-09T09:51:00,75s,7.37
2021-12-09T09:52:00,75s,6.27
2021-12-09T09:53:00,75s,6.74
2021-12-09T09:54:00,75s,6.35
2021-12-09T09:55:00,75s,6.44
2021-12-09T09:56:00,75s,6.41
2021-12-09T09:57:00,75s,6.73
2021-12-09T09:58:00,75s,6.21
2021-12-09T09:59:00,75s,6.52
2021-12-09T10:00:00,75s,6.99
2021-12-09T10:01:00,75s,6.30
2021-12-09T10:02:00,75s,6.30
2021-12-09T10:03:00,75s,6.37
2021-12-09T10:04:00,75s,6.23
2021-12-09T10:05:00,75s,6.40
2021-12-09T10:06:00,75s,6.41
2021-12-09T10:07:00,75s,6.62
2021-12-09T10:08:00,75s,6.49
2021-12-09T10:09:00,75s,7.23
2021-12-09T10:10:00,75s,6.97
2021-12-09T10:11:00,75s,6.46
2021-12-09T10:12:00,75s,6.65
2021-12-09T10:13:00,75s,7.51
2021-12-09T10:14:00,75s,6.61
2021-12-09T10:15:00,75s,6.49
2021-12-09T10:16:00,75s,7.37
2021-12-09T10:17:00,75s,6.66
2021-12-09T10:18:00,75s,6.50
2021-12-09T10:19:00,75s,7.31
2021-12-09T10:20:00,75s,6.80
2021-12-09T10:21:00,75s,6.72
2021-12-09T10:22:00,75s,6.89
2021-12-09T10:23:00,75s,6.87
2021-12-09T10:24:00,75s,6.61
2021-12-09T10:25:00,75s,7.33
2021-12-09T10:26:00,75s,6.50
2021-12-09T10:27:00,75s,7.11
2021-12-09T10:28:00,75s,6.79
2021-12-09T10:29:00,75s,6.71
2021-12-09T10:30:00,75s,6.77
2021-12-09T10:31:00,75s,7.00
2021-12-09T10:32:00,75s,6.83
2021-12-09T10:33:00,75s,6.85
2021-12-09T10:34:00,75s,7.64
2021-12-09T10:35:00,75s,6.74
2021-12-09T10:36:00,75s,6.85
2021-12-09T10:37:00,75s,7.71
2021-12-09T10:38:00,75s,6.96
2021-12-09T10:39:00,75s,6.90
2021-12-09T10:40:00,75s,7.00
2021-12-09T10:41:00,75s,7.29
2021-12-09T10:42:00,75s,6.81
2021-12-09T10:43:00,75s,7.67
2021-12-09T10:44:00,75s,7.90
2021-12-09T10:45:00,75s,7.46
2021-12-09T10:46:00,75s,7.27
2021-12-09T10:47:00,75s,6.69
2021-12-09T10:48:00,75s,6.47
2021-12-09T10:49:00,75s,7.11
2021-12-09T10:50:00,75s,7.06
2021-12-09T10:51:00,75s,6.31
2021-12-09T10:52:00,75s,7.63
2021-12-09T10:53:00,75s,6.42
2021-12-09T10:54:00,75s,6.38
2021-12-09T10:55:00,75s,7.38
2021-12-09T10:56:00,75s,7.20
2021-12-09T10:57:00,75s,6.60
2021-12-09T10:58:00,75s,6.94
2021-12-09T10:59:00,75s,6.69
2021-12-09T11:00:00,75s,6.87
2021-12-09T11:01:00,75s,6.76
2021-12-09T11:02:00,75s,6.92
2021-12-09T11:03:00,75s,7.23
2021-12-09T11:04:00,75s,6.65
2021-12-09T11:05:00,75s,6.66
2021-12-09T11:06:00,75s,6.53
2021-12-09T11:07:00,75s,7.46
2021-12-09T11:08:00,75s,6.66
2021-12-09T11:09:00,75s,6.76
2021-12-09T11:10:00,75s,6.67
2021-12-09T11:11:00,75s,7.04
2021-12-09T11:12:00,75s,6.46
2021-12-09T11:13:00,75s,6.52
2021-12-09T11:14:00,75s,6.51
2021-12-09T11:15:00,75s,6.44
2021-12-09T11:16:00,75s,7.09
2021-12-09T11:17:00,75s,6.49
2021-12-09T11:18:00,75s,6.45
2021-12-09T11:19:00,75s,6.85
2021-12-09T11:20:00,75s,6.58
2021-12-09T11:21:00,75s,6.82
2021-12-09T11:22:00,75s,7.13
2021-12-09T11:23:00,75s,7.44
2021-12-09T11:24:00,75s,6.83
2021-12-09T11:25:00,75s,7.07
2021-12-09T11:26:00,75s,7.53
2021-12-09T11:27:00,75s,6.84
2021-12-09T11:28:00,75s,6.68
2021-12-09T11:29:00,75s,6.63
2021-12-09T11:30:00,75s,6.85
2021-12-09T11:31:00,75s,6.71
2021-12-09T11:32:00,75s,6.94
2021-12-09T11:33:00,75s,7.36
2021-12-09T11:34:00,75s,7.02
2021-12-09T11:35:00,75s,7.34
2021-12-09T11:36:00,75s,6.88
2021-12-09T11:37:00,75s,6.89
2021-12-09T11:38:00,75s,6.80
2021-12-09T11:39:00,75s,7.07
2021-12-09T11:40:00,75s,7.00
2021-12-09T11:41:00,75s,6.81
2021-12-09T11:42:00,75s,6.77
2021-12-09T11:43:00,75s,7.77
2021-12-09T11:44:00,75s,7.57
2021-12-09T11:45:00,75s,7.71
2021-12-09T11:46:00,75s,7.60
2021-12-09T11:47:00,75s,6.89
2021-12-09T11:48:00,75s,7.50
2021-12-09T11:49:00,75s,7.19
2021-12-09T11:50:00,75s,6.81
2021-12-09T11:51:00,75s,6.41
2021-12-09T11:52:00,75s,7.02
2021-12-09T11:53:00,75s,6.31
2021-12-09T11:54:00,75s,6.38
2021-12-09T11:55:00,75s,7.09
2021-12-09T11:56:00,75s,6.74
2021-12-09T11:57:00,75s,6.38
2021-12-09T11:58:00,75s,7.11
2021-12-09T11:59:00,75s,6.32
2021-12-09T12:00:00,75s,6.21
2021-12-09T12:01:00,75s,7.37
2021-12-09T12:02:00,75s,6.86
2021-12-09T12:03:00,75s,6.15
2021-12-09T12:04:00,75s,6.33
2021-12-09T12:05:00,75s,15.33
2021-12-09T12:06:00,75s,15.22
2021-12-09T12:07:00,75s,16.57
2021-12-09T12:08:00,75s,15.80
2021-12-09T12:09:00,75s,15.60
2021-12-09T12:10:00,75s,7.44
2021-12-09T12:11:00,75s,6.25
2021-12-09T12:12:00,75s,6.20
2021-12-09T12:13:00,75s,7.32
2021-12-09T12:14:00,75s,6.03
2021-12-09T12:15:00,75s,5.93
2021-12-09T12:16:00,75s,7.03
2021-12-09T12:17:00,75s,5.97
2021-12-09T12:18:00,75s,5.92
2021-12-09T12:19:00,75s,6.42
2021-12-09T12:20:00,75s,5.82
2021-12-09T12:21:00,75s,5.72
2021-12-09T12:22:00,75s,5.77
2021-12-09T12:23:00,75s,5.72
2021-12-09T12:24:00,75s,5.65
2021-12-09T12:25:00,75s,5.75
2021-12-09T12:26:00,75s,5.92
2021-12-09T12:27:00,75s,5.53
2021-12-09T12:28:00,75s,6.45
2021-12-09T12:29:00,75s,6.03
2021-12-09T12:30:00,75s,5.61
2021-12-09T12:31:00,75s,5.69
2021-12-09T12:32:00,75s,6.42
2021-12-09T12:33:00,75s,5.44
2021-12-09T12:34:00,75s,5.51
2021-12-09T12:35:00,75s,5.49
2021-12-09T12:36:00,75s,5.45
2021-12-09T12:37:00,75s,5.49
2021-12-09T12:38:00,75s,5.48
2021-12-09T12:39:00,75s,5.36
2021-12-09T12:40:00,75s,5.40
2021-12-09T12:41:00,75s,6.37
2021-12-09T12:42:00,75s,6.04
2021-12-09T12:43:00,75s,5.78
2021-12-09T12:44:00,75s,7.26
2021-12-09T12:45:00,75s,5.54
2021-12-09T12:46:00,75s,5.83
2021-12-09T12:47:00,75s,6.33
2021-12-09T12:48:00,75s,5.80
2021-12-09T12:49:00,75s,5.62
2021-12-09T12:50:00,75s,6.14
2021-12-09T12:51:00,75s,5.41
2021-12-09T12:52:00,75s,5.45
2021-12-09T12:53:00,75s,5.63
2021-12-09T12:54:00,75s,5.61
2021-12-09T12:55:00,75s,5.42
2021-12-09T12:56:00,75s,5.49
2021-12-09T12:57:00,75s,5.48
2021-12-09T12:58:00,75s,5.30
2021-12-09T12:59:00,75s,5.42
2021-12-09T13:00:00,75s,5.48
2021-12-09T13:01:00,75s,5.44
2021-12-09T13:02:00,75s,5.40
2021-12-09T13:03:00,75s,6.01
2021-12-09T13:04:00,75s,5.43
2021-12-09T13:05:00,75s,5.53
2021-12-09T13:06:00,75s,5.67
2021-12-09T13:07:00,75s,6.22
2021-12-09T13:08:00,75s,5.62
2021-12-09T13:09:00,75s,5.61
2021-12-09T13:10:00,75s,6.83
2021-12-09T13:11:00,75s,6.35
2021-12-09T13:12:00,75s,5.97
2021-12-09T13:13:00,75s,6.15
2021-12-09T13:14:00,75s,5.96
2021-12-09T13:15:00,75s,6.13
2021-12-09T13:16:00,75s,5.89
2021-12-09T13:17:00,75s,5.95
2021-12-09T13:18:00,75s,5.89
2021-12-09T13:19:00,75s,6.84
2021-12-09T13:20:00,75s,6.29
2021-12-09T13:21:00,75s,6.28
2021-12-09T13:22:00,75s,16.40
2021-12-09T13:23:00,75s,6.09
2021-12-09T13:24:00,75s,6.19
2021-12-09T13:25:00,75s,6.12
2021-12-09T13:26:00,75s,6.75
2021-12-09T13:27:00,75s,6.55
2021-12-09T13:28:00,75s,7.02
2021-12-09T13:29:00,75s,6.41
2021-12-09T13:30:00,75s,6.22
2021-12-09T13:31:00,75s,6.27
2021-12-09T13:32:00,75s,6.54
2021-12-09T13:33:00,75s,6.71
2021-12-09T13:34:00,75s,6.37
2021-12-09T13:35:00,75s,6.37
2021-12-09T13:36:00,75s,6.81
2021-12-09T13:37:00,75s,6.56
2021-12-09T13:38:00,75s,6.85
2021-12-09T13:39:00,75s,7.04
2021-12-09T13:40:00,75s,6.65
2021-12-09T13:41:00,75s,6.31
2021-12-09T13:42:00,75s,6.38
2021-12-09T13:43:00,75s,6.29
2021-12-09T13:44:00,75s,6.69